UKV5035 RJKA-ROAH

Flight info

Callsign UKV5035
Flight time 0h 33m
Altitude 20000
Route YUWAN B597 ONC A582 NHC
Aircraft A321/M-SDE3FGHIRWY/LB1

Departure

Time 2026-05-07 18:57
Airport Amami Airport (RJKA)

Arrival

Time 2026-05-07 19:30
Airport Naha International Airport (ROAH)
Time Latitude Longitude Altitude Speed Heading
2026-05-07 18:46 28.43165 129.70942 56 ft 0 kts 298°
2026-05-07 18:52 28.43164 129.70945 49 ft 3 kts 298°
2026-05-07 18:52 28.43151 129.70972 50 ft 4 kts 298°
2026-05-07 18:52 28.43139 129.70998 54 ft 2 kts 298°
2026-05-07 18:52 28.43127 129.71020 50 ft 4 kts 309°
2026-05-07 18:53 28.43108 129.71042 48 ft 4 kts 328°
2026-05-07 18:53 28.43090 129.71052 48 ft 0 kts 344°
2026-05-07 18:54 28.43092 129.71053 48 ft 2 kts
2026-05-07 18:54 28.43162 129.71095 53 ft 23 kts 30°
2026-05-07 18:55 28.43345 129.71200 52 ft 33 kts 26°
2026-05-07 18:55 28.43555 129.71316 51 ft 34 kts 25°
2026-05-07 18:55 28.43760 129.71427 51 ft 28 kts 25°
2026-05-07 18:55 28.43898 129.71507 56 ft 19 kts 40°
2026-05-07 18:56 28.43883 129.71649 51 ft 17 kts 117°
2026-05-07 18:56 28.43822 129.71671 53 ft 17 kts 203°
2026-05-07 18:56 28.43441 129.71461 53 ft 102 kts 206°
2026-05-07 18:56 28.42611 129.70999 221 ft 150 kts 207°
2026-05-07 18:57 28.41704 129.70500 1052 ft 144 kts 207°
2026-05-07 18:57 28.40801 129.70007 1842 ft 145 kts 208°
2026-05-07 18:57 28.39867 129.69496 2335 ft 153 kts 209°
2026-05-07 18:57 28.38849 129.68935 2494 ft 173 kts 209°
2026-05-07 18:58 28.37711 129.68309 2631 ft 189 kts 208°
2026-05-07 18:58 28.36476 129.67630 2750 ft 207 kts 208°
2026-05-07 18:58 28.35167 129.66759 2842 ft 230 kts 224°
2026-05-07 18:58 28.34040 129.65377 3139 ft 251 kts 230°
2026-05-07 18:59 28.32862 129.63875 3780 ft 257 kts 230°
2026-05-07 18:59 28.31667 129.62360 4529 ft 259 kts 230°
2026-05-07 18:59 28.30457 129.60833 5277 ft 261 kts 230°
2026-05-07 18:59 28.29238 129.59294 6016 ft 263 kts 230°
2026-05-07 19:00 28.28007 129.57744 6743 ft 265 kts 230°
2026-05-07 19:00 28.26764 129.56180 7450 ft 267 kts 230°
2026-05-07 19:00 28.25513 129.54604 8149 ft 270 kts 230°
2026-05-07 19:00 28.24254 129.53014 8831 ft 273 kts 231°
2026-05-07 19:01 28.22994 129.51424 9520 ft 275 kts 231°
2026-05-07 19:01 28.21703 129.49798 10172 ft 279 kts 231°
2026-05-07 19:01 28.20360 129.48103 10388 ft 299 kts 231°
2026-05-07 19:01 28.18919 129.46288 10513 ft 321 kts 229°
2026-05-07 19:02 28.17238 129.44493 10644 ft 342 kts 224°
2026-05-07 19:02 28.15417 129.42645 10745 ft 360 kts 224°
2026-05-07 19:02 28.13506 129.40706 10879 ft 377 kts 224°
2026-05-07 19:02 28.11540 129.38714 11149 ft 388 kts 224°
2026-05-07 19:03 28.09516 129.36661 11649 ft 392 kts 224°
2026-05-07 19:03 28.07471 129.34588 12186 ft 394 kts 224°
2026-05-07 19:03 28.05412 129.32503 12715 ft 397 kts 224°
2026-05-07 19:03 28.03372 129.30441 13238 ft 400 kts 224°
2026-05-07 19:04 28.01296 129.28342 13754 ft 402 kts 224°
2026-05-07 19:04 27.99203 129.26222 14193 ft 404 kts 224°
2026-05-07 19:04 27.97094 129.24086 14608 ft 407 kts 224°
2026-05-07 19:04 27.94977 129.21947 15030 ft 409 kts 224°
2026-05-07 19:05 27.92850 129.19799 15443 ft 411 kts 224°
2026-05-07 19:05 27.90708 129.17636 15858 ft 413 kts 224°
2026-05-07 19:05 27.88559 129.15467 16260 ft 415 kts 224°
2026-05-07 19:05 27.86394 129.13286 16671 ft 417 kts 224°
2026-05-07 19:06 27.84221 129.11099 17073 ft 419 kts 224°
2026-05-07 19:06 27.79874 129.06713 17711 ft 426 kts 224°
2026-05-07 19:06 27.77641 129.04453 17901 ft 432 kts 224°
2026-05-07 19:07 27.75393 129.02177 18196 ft 435 kts 224°
2026-05-07 19:07 27.73133 128.99893 18494 ft 437 kts 224°
2026-05-07 19:07 27.70890 128.97631 18778 ft 438 kts 224°
2026-05-07 19:07 27.68609 128.95330 19079 ft 440 kts 224°
2026-05-07 19:08 27.66320 128.93024 19374 ft 441 kts 224°
2026-05-07 19:08 27.64021 128.90707 19667 ft 443 kts 224°
2026-05-07 19:08 27.61714 128.88382 19929 ft 445 kts 224°
2026-05-07 19:08 27.60183 128.86839 19973 ft 444 kts 224°
2026-05-07 19:09 27.57879 128.84520 20004 ft 444 kts 224°
2026-05-07 19:09 27.55755 128.82383 19998 ft 443 kts 224°
2026-05-07 19:09 27.53450 128.80067 20004 ft 443 kts 224°
2026-05-07 19:09 27.51894 128.78507 19996 ft 443 kts 224°
2026-05-07 19:10 27.49616 128.76224 20001 ft 443 kts 224°
2026-05-07 19:10 27.47308 128.73915 19994 ft 443 kts 224°
2026-05-07 19:10 27.45001 128.71606 20000 ft 444 kts 224°
2026-05-07 19:10 27.42681 128.69304 20001 ft 445 kts 223°
2026-05-07 19:11 27.40287 128.67078 19998 ft 446 kts 221°
2026-05-07 19:11 27.37844 128.64933 19991 ft 446 kts 220°
2026-05-07 19:11 27.35371 128.62831 19995 ft 445 kts 220°
2026-05-07 19:11 27.32891 128.60739 19985 ft 445 kts 220°
2026-05-07 19:12 27.30454 128.58668 19987 ft 445 kts 220°
2026-05-07 19:12 27.27994 128.56552 19971 ft 445 kts 220°
2026-05-07 19:12 27.25543 128.54423 19971 ft 445 kts 220°
2026-05-07 19:12 27.23098 128.52288 19973 ft 446 kts 221°
2026-05-07 19:13 27.20648 128.50140 19974 ft 446 kts 221°
2026-05-07 19:13 27.18198 128.47996 19976 ft 446 kts 220°
2026-05-07 19:13 27.15743 128.45853 19977 ft 446 kts 220°
2026-05-07 19:13 27.13292 128.43719 19951 ft 446 kts 220°
2026-05-07 19:14 27.10838 128.41587 19955 ft 446 kts 220°
2026-05-07 19:14 27.08412 128.39482 19945 ft 446 kts 220°
2026-05-07 19:14 27.05957 128.37357 19969 ft 443 kts 220°
2026-05-07 19:14 27.03519 128.35248 19817 ft 440 kts 220°
2026-05-07 19:15 27.01092 128.33151 18938 ft 440 kts 220°
2026-05-07 19:15 26.98687 128.31068 18257 ft 433 kts 220°
2026-05-07 19:15 26.96300 128.28998 17459 ft 430 kts 220°
2026-05-07 19:15 26.93973 128.26981 16598 ft 427 kts 220°
2026-05-07 19:16 26.91635 128.24958 15858 ft 422 kts 220°
2026-05-07 19:16 26.89321 128.22957 15101 ft 419 kts 220°
2026-05-07 19:16 26.87022 128.20974 14396 ft 415 kts 220°
2026-05-07 19:16 26.84740 128.19007 13724 ft 412 kts 220°
2026-05-07 19:17 26.82472 128.17054 13074 ft 407 kts 220°
2026-05-07 19:17 26.80234 128.15128 12387 ft 404 kts 220°
2026-05-07 19:17 26.78014 128.13218 11781 ft 400 kts 220°
2026-05-07 19:17 26.75826 128.11333 11370 ft 390 kts 220°
2026-05-07 19:18 26.73751 128.09549 11248 ft 372 kts 220°
2026-05-07 19:18 26.71749 128.07829 11115 ft 354 kts 220°
2026-05-07 19:18 26.69837 128.06183 10996 ft 338 kts 220°
2026-05-07 19:18 26.68084 128.04516 10874 ft 321 kts 229°
2026-05-07 19:19 26.66741 128.02599 10758 ft 305 kts 240°
2026-05-07 19:19 26.65801 128.00534 10633 ft 292 kts 248°
2026-05-07 19:19 26.65005 127.98539 10497 ft 282 kts 247°
2026-05-07 19:19 26.64205 127.96553 10290 ft 274 kts 247°
2026-05-07 19:20 26.63420 127.94614 10189 ft 274 kts 248°
2026-05-07 19:20 26.62635 127.92687 10052 ft 271 kts 248°
2026-05-07 19:20 26.61851 127.90765 9866 ft 273 kts 248°
2026-05-07 19:20 26.61055 127.88812 9395 ft 276 kts 247°
2026-05-07 19:21 26.60263 127.86865 8997 ft 275 kts 247°
2026-05-07 19:21 26.59473 127.84923 8630 ft 273 kts 247°
2026-05-07 19:21 26.58685 127.82984 8241 ft 273 kts 247°
2026-05-07 19:21 26.57899 127.81047 7822 ft 275 kts 246°
2026-05-07 19:22 26.57105 127.79095 7406 ft 276 kts 246°
2026-05-07 19:22 26.56312 127.77148 6972 ft 277 kts 246°
2026-05-07 19:22 26.55530 127.75224 6700 ft 273 kts 246°
2026-05-07 19:22 26.54742 127.73290 6320 ft 273 kts 245°
2026-05-07 19:23 26.53955 127.71359 5950 ft 272 kts 245°
2026-05-07 19:23 26.53172 127.69435 5582 ft 272 kts 245°
2026-05-07 19:23 26.52391 127.67517 5205 ft 269 kts 245°
2026-05-07 19:23 26.51619 127.65624 4530 ft 267 kts 245°
2026-05-07 19:24 26.50745 127.63815 3921 ft 262 kts 232°
2026-05-07 19:24 26.49480 127.62410 3516 ft 260 kts 215°
2026-05-07 19:24 26.47885 127.61489 3091 ft 259 kts 198°
2026-05-07 19:24 26.46117 127.61159 2683 ft 259 kts 180°
2026-05-07 19:25 26.44339 127.61293 2280 ft 251 kts 175°
2026-05-07 19:25 26.42645 127.61454 1897 ft 239 kts 176°
2026-05-07 19:25 26.41028 127.61586 1630 ft 221 kts 176°
2026-05-07 19:25 26.39522 127.61704 1554 ft 213 kts 176°
2026-05-07 19:26 26.38053 127.61819 1470 ft 209 kts 176°
2026-05-07 19:26 26.36712 127.61924 1394 ft 182 kts 176°
2026-05-07 19:26 26.35522 127.62017 1332 ft 159 kts 176°
2026-05-07 19:26 26.34449 127.62102 1261 ft 150 kts 176°
2026-05-07 19:27 26.33426 127.62182 1225 ft 145 kts 176°
2026-05-07 19:27 26.32423 127.62261 1238 ft 144 kts 176°
2026-05-07 19:27 26.31423 127.62339 1205 ft 144 kts 176°
2026-05-07 19:27 26.30425 127.62417 1205 ft 144 kts 176°
2026-05-07 19:28 26.29428 127.62496 1210 ft 144 kts 175°
2026-05-07 19:28 26.28426 127.62574 1217 ft 145 kts 175°
2026-05-07 19:28 26.27435 127.62652 1209 ft 144 kts 175°
2026-05-07 19:28 26.26427 127.62731 1124 ft 145 kts 176°
2026-05-07 19:29 26.25420 127.62810 982 ft 145 kts 176°
2026-05-07 19:29 26.24414 127.62890 858 ft 144 kts 175°
2026-05-07 19:29 26.23417 127.62965 706 ft 145 kts 174°
2026-05-07 19:29 26.22404 127.63060 497 ft 146 kts 172°
2026-05-07 19:30 26.21402 127.63185 275 ft 144 kts 175°
2026-05-07 19:30 26.20394 127.63237 50 ft 145 kts 177°
2026-05-07 19:30 26.19453 127.63276 18 ft 121 kts 176°
2026-05-07 19:30 26.18811 127.63314 15 ft 40 kts 173°
2026-05-07 19:31 26.18666 127.63414 16 ft 19 kts 143°
2026-05-07 19:31 26.18685 127.63508 17 ft 17 kts
2026-05-07 19:31 26.18803 127.63502 16 ft 17 kts 357°
2026-05-07 19:31 26.18928 127.63496 17 ft 18 kts 358°
2026-05-07 19:32 26.19056 127.63490 17 ft 19 kts 358°
2026-05-07 19:32 26.19194 127.63484 17 ft 20 kts 357°
2026-05-07 19:32 26.19338 127.63477 17 ft 21 kts 357°
2026-05-07 19:32 26.19484 127.63469 17 ft 22 kts 357°
2026-05-07 19:33 26.19637 127.63462 17 ft 22 kts 358°
2026-05-07 19:33 26.19795 127.63455 17 ft 23 kts 358°
2026-05-07 19:33 26.19957 127.63448 17 ft 24 kts 358°
2026-05-07 19:33 26.20126 127.63440 17 ft 25 kts 358°
2026-05-07 19:34 26.20279 127.63446 18 ft 18 kts 34°
2026-05-07 19:34 26.20303 127.63576 17 ft 19 kts 84°
2026-05-07 19:34 26.20310 127.63729 17 ft 20 kts 87°
2026-05-07 19:34 26.20317 127.63887 17 ft 21 kts 87°
2026-05-07 19:35 26.20323 127.64055 17 ft 24 kts 87°
2026-05-07 19:35 26.20331 127.64270 17 ft 29 kts 88°
2026-05-07 19:35 26.20339 127.64475 18 ft 29 kts 87°
2026-05-07 19:35 26.20350 127.64700 19 ft 29 kts 77°
2026-05-07 19:36 26.20406 127.64824 20 ft 10 kts 45°
2026-05-07 19:36 26.20437 127.64860 21 ft 4 kts 46°
2026-05-07 19:36 26.20442 127.64866 21 ft 0 kts 46°